This is the latest recevied weather packets stored in our database for station/object OH2EGI-2. If no packets are shown the sender has not sent any weather packets the latest 10 day(s).
| Time | Temp. | Humidity | Pressure | Rain* | Wind** | Luminosity | Snow |
|---|---|---|---|---|---|---|---|
| 1777119137 | 6.67° C | 76% | 982.3 hPa | 0 mm | - | - | - |
| 1777118837 | 6.67° C | 76% | 982.5 hPa | 0 mm | - | - | - |
| 1777118537 | 6.67° C | 76% | 982.5 hPa | 0 mm | - | - | - |
| 1777118237 | 6.11° C | 76% | 982.6 hPa | 0 mm | - | - | - |
| 1777117937 | 5.56° C | 76% | 982.6 hPa | 0 mm | - | - | - |
| 1777117637 | 5° C | 75% | 982.7 hPa | 0 mm | - | - | - |
| 1777117337 | 5.56° C | 75% | 982.7 hPa | 0 mm | - | - | - |
| 1777117037 | 6.11° C | 74% | 983 hPa | 0 mm | - | - | - |
| 1777116737 | 6.11° C | 74% | 982.9 hPa | 0 mm | - | - | - |
| 1777116437 | 6.67° C | 74% | 982.9 hPa | 0 mm | - | - | - |
| 1777116137 | 6.67° C | 73% | 982.9 hPa | 0 mm | - | - | - |
| 1777115837 | 6.67° C | 72% | 982.9 hPa | 0 mm | - | - | - |
| 1777115537 | 7.22° C | 71% | 983 hPa | 0 mm | - | - | - |
| 1777115237 | 7.22° C | 71% | 983 hPa | 0 mm | - | - | - |
| 1777114937 | 7.78° C | 69% | 982.9 hPa | 0 mm | - | - | - |
| 1777114637 | 8.33° C | 68% | 983 hPa | 0 mm | - | - | - |
| 1777114337 | 8.89° C | 66% | 983.1 hPa | 0 mm | - | - | - |
| 1777114037 | 9.44° C | 65% | 983.2 hPa | 0 mm | - | - | - |
| 1777113737 | 10° C | 63% | 983.1 hPa | 0 mm | - | - | - |
| 1777113437 | 11.67° C | 62% | 983.1 hPa | 0 mm | - | - | - |
| 1777113137 | 11.67° C | 61% | 983.1 hPa | 0 mm | - | - | - |
| 1777112837 | 12.78° C | 60% | 983.2 hPa | 0 mm | - | - | - |
| 1777112537 | 12.78° C | 63% | 983.3 hPa | 0 mm | - | - | - |
| 1777112237 | 11.67° C | 64% | 983.3 hPa | 0 mm | - | - | - |
| 1777111937 | 10.56° C | 65% | 983.4 hPa | 0 mm | - | - | - |
* Rain latest hour (hover to see other rain measurements)
** Current wind speed in m/s (hover to see current wind gust speed)